[[{"header":{"parameterUnit":"m.s-1","parameterCategory":1,"la1":30.2991,"la2":30.254,"lo1":-89.0895,"lo2":-89.0444,"dy":0.0017,"dx":0.0017,"nx":28,"ny":28,"refTime":"2024-07-09T21:00:00:Z","depth":0,"parameterNumber":2,"parameterNumberName":"U-component_of_WINDS"},"data":[0,0,0,0,0,0,0,0,0,0,0,0,0,0,0,0,0,0,0,0,0,0,0,0,0,0,0,0,0,0,0,0,0,0,0,0,0,0,0,0,0,0,0,0,0,0,0,0,0,0,0,0,0,0,0,0,0,0,5.1926,5.1928,0,5.2059,5.206,5.2062,5.2063,5.2061,5.2059,5.2058,5.2188,5.2193,5.2198,0,0,0,0,0,0,0,0,0,0,0,0,0,5.1667,5.1672,5.1926,5.1928,5.193,5.2059,5.206,5.2062,5.2063,5.2061,5.2059,5.2057,5.2186,5.2192,5.2198,0,0,0,0,0,0,0,0,0,0,0,0,0,5.1787,5.1673,5.1926,5.1946,5.1949,5.2058,5.206,5.2063,5.2063,5.2061,5.2058,5.2056,5.2184,5.2192,5.2199,5.2296,0,0,5.2222,5.2226,0,0,0,0,0,0,0,0,5.178,5.1797,5.1941,5.1944,5.1948,5.2042,5.2017,5.2141,5.2064,5.202,5.2058,5.2055,5.2141,5.2152,5.2182,5.2302,5.2308,5.2223,5.2228,5.2231,5.2233,0,0,0,0,0,0,0,5.1772,5.1791,5.1978,5.1943,5.1947,5.1945,5.196,5.204,5.2093,5.2023,5.2024,5.204,5.2142,5.2175,5.2185,5.231,5.2223,5.223,5.2234,5.2237,5.2513,5.2515,0,0,0,0,0,0,5.1761,5.1784,5.1974,5.1982,5.1857,5.1952,5.1968,5.2014,5.2092,5.2101,5.2042,5.2039,5.2163,5.2176,5.219,5.2306,5.2231,5.2238,5.2242,5.251,5.2513,5.2516,0,0,0,0,0,0,5.1755,5.1778,5.1969,5.1884,5.1908,5.1959,5.2011,5.2018,5.2051,5.2106,5.2115,5.2066,5.2162,5.2179,5.2269,5.2311,5.2241,5.2248,5.2507,5.2511,5.2515,5.2541,0,0,0,0,0,0,5.1748,5.1776,5.1815,5.1884,5.1912,5.2048,5.2014,5.2022,5.2064,5.2062,5.2131,5.2139,5.2161,5.2258,5.2277,5.232,5.2254,5.2503,5.2509,5.2513,5.2537,5.2545,5.2553,0,0,0,0,0,5.1738,5.1816,5.1817,5.184,5.1963,5.2051,5.2066,5.2091,5.2068,5.2106,5.2141,5.2137,5.2304,5.2267,5.2289,5.2334,5.2501,5.2507,5.2513,5.2533,5.2544,5.2553,0,0,0,0,0,0,5.1749,5.1826,5.1827,5.1931,5.1984,5.2051,5.21,5.2103,5.2163,5.2158,5.2185,5.22,5.2289,5.2321,5.228,5.2431,5.2399,5.241,5.2407,5.2417,5.2426,5.2415,5.226,0,0,0,0,0,5.1764,5.1831,5.1894,5.1979,5.2006,5.2048,5.2088,5.2102,5.2158,5.218,5.2222,5.2275,5.2338,5.238,5.2442,5.2542,5.2555,5.2583,5.2592,5.2598,5.2606,5.2658,5.2671,5.2537,5.2537,5.2537,0,0,5.1794,5.1844,5.1885,5.1982,5.2025,5.2091,5.2067,5.2139,5.2188,5.2191,5.2278,5.231,5.2371,5.2465,5.2509,5.2494,5.2646,5.2606,5.2611,5.2616,5.2666,5.2678,5.269,5.2541,5.254,5.254,0,0,5.1882,5.1929,5.2003,5.2047,5.2113,5.2141,5.2159,5.2225,5.2247,5.2336,5.2338,5.2395,5.2506,5.2548,5.2584,5.2686,5.2684,5.2706,5.2748,5.2798,5.2809,5.2818,5.2852,5.2864,5.2714,5.2714,5.2714,0,5.1911,5.2013,5.2041,5.2113,5.2154,5.2161,5.2234,5.2275,5.2357,5.2385,5.2368,5.2505,5.2546,5.2649,5.2674,5.2704,5.2722,5.2697,5.2805,5.2815,5.2824,5.2857,5.2869,5.2716,5.2716,5.2716,5.2716,0,5.2044,5.2114,5.2166,5.2246,5.2294,5.2366,5.2402,5.2446,5.2456,5.2485,5.2573,5.2623,5.2694,5.272,5.273,5.2823,5.2812,5.28,5.2768,5.2838,5.2869,5.2882,5.2719,5.2718,5.2718,5.2717,0,0,5.2142,5.2236,5.2255,5.229,5.2363,5.2417,5.2488,5.2559,5.2595,5.2651,5.2709,5.2802,5.2791,5.2831,5.2846,5.2891,5.2965,5.2873,5.2875,5.2886,5.3067,5.3074,5.3088,5.2965,5.2967,5.2969,5.3061,0,5.2236,5.2366,5.2391,5.2502,5.2565,5.2572,5.2634,5.2684,5.2712,5.2768,5.2799,5.2863,5.2845,5.2869,5.2914,5.2947,5.3001,5.2941,5.3016,5.3019,5.2999,5.3105,5.3113,5.3197,5.3074,5.3076,5.3077,0,5.2364,5.2424,5.2541,5.2603,5.2631,5.2686,5.2752,5.2807,5.2862,5.2879,5.2924,5.2934,5.3005,5.2972,5.3069,5.3027,5.3059,5.308,5.3084,5.309,5.3051,5.3111,5.3225,5.3236,5.3097,5.3096,5.3094,0,5.242,5.253,5.2614,5.2644,5.272,5.2758,5.2791,5.2845,5.2884,5.2941,5.2967,5.3031,5.3065,5.3113,5.3139,5.3112,5.3233,5.3202,5.3246,5.3246,5.327,5.3267,5.3388,5.3295,5.3295,5.3295,5.3294,0,5.2521,5.2592,5.264,5.2691,5.277,5.2798,5.2874,5.2906,5.2953,5.3008,5.3018,5.307,5.3102,5.3157,5.3178,5.3253,5.3269,5.3283,5.3287,5.3281,5.3278,5.33,5.3294,5.3298,5.3297,5.3297,5.3296,0,5.2597,5.2632,5.2724,5.2788,5.2805,5.286,5.2913,5.2962,5.299,5.306,5.3078,5.3121,5.3187,5.3218,5.3299,5.3312,5.3397,5.3398,5.3378,5.3379,5.3421,5.3415,5.3557,5.3576,5.3473,5.3474,5.3475,0,5.2658,5.2712,5.2782,5.2821,5.2855,5.2917,5.2958,5.2987,5.3029,5.3095,5.3135,5.3201,5.3255,5.3359,5.3396,5.3457,5.3459,5.3504,5.3468,5.3459,5.3456,5.3451,5.3455,5.351,5.3511,5.3512,5.3512,0,5.2761,5.2776,5.2835,5.2901,5.295,5.3002,5.3053,5.3084,5.3121,5.3167,5.3234,5.3276,5.3359,5.3423,5.3487,5.3518,5.352,5.3524,5.3537,5.353,5.3515,5.352,5.3393,5.352,5.3519,5.3519,5.3518,5.3518,5.2829,5.2877,5.2933,5.2998,5.304,5.3088,5.3136,5.317,5.3228,5.3298,5.3311,5.3382,5.3434,5.3519,5.3553,5.3607,5.3596,5.3616,5.362,5.3624,5.3625,5.3508,5.3619,5.3619,5.3619,5.3618,5.3618,0,5.293,5.2967,5.3027,5.3099,5.3149,5.315,5.3206,5.3247,5.331,5.3359,5.3412,5.3488,5.3551,5.3593,5.3655,5.369,5.3692,5.3705,5.3701,5.3708,5.3632,5.3614,5.3702,5.3702,5.3702,5.3702,5.3702,5.3702,5.2989,5.3069,5.309,5.3189,5.3225,5.3296,5.3327,5.337,5.3409,5.3494,5.3546,5.3574,5.3619,5.3685,5.3741,5.3751,5.3772,5.3785,5.3794,5.3722,5.3714,5.3705,5.3687,5.379,5.379,5.3865,5.3866,5.3867]},{"header":{"parameterUnit":"m.s-1","parameterCategory":1,"la1":30.2991,"la2":30.254,"lo1":-89.0895,"lo2":-89.0444,"dy":0.0017,"dx":0.0017,"nx":28,"ny":28,"refTime":"2024-07-09T21:00:00:Z","depth":0,"parameterNumber":3,"parameterNumberName":"V-component_of_WINDS"},"data":[0,0,0,0,0,0,0,0,0,0,0,0,0,0,0,0,0,0,0,0,0,0,0,0,0,0,0,0,0,0,0,0,0,0,0,0,0,0,0,0,0,0,0,0,0,0,0,0,0,0,0,0,0,0,0,0,0,0,5.6079,5.608,0,5.613,5.613,5.6131,5.6107,5.6106,5.6105,5.6104,5.6149,5.6151,5.6154,0,0,0,0,0,0,0,0,0,0,0,0,0,5.5957,5.5959,5.6079,5.608,5.6081,5.6129,5.613,5.6131,5.6108,5.6106,5.6105,5.6103,5.6148,5.6151,5.6154,0,0,0,0,0,0,0,0,0,0,0,0,0,5.6009,5.596,5.6079,5.6075,5.6075,5.6129,5.613,5.6131,5.6108,5.6106,5.6104,5.6102,5.6147,5.6151,5.6154,5.6214,0,0,5.6165,5.6167,0,0,0,0,0,0,0,0,5.6006,5.6013,5.6075,5.6075,5.6076,5.611,5.6104,5.6159,5.6108,5.6095,5.6104,5.6101,5.6137,5.6142,5.6155,5.6216,5.6218,5.6165,5.6168,5.6169,5.617,0,0,0,0,0,0,0,5.6002,5.6011,5.6099,5.6076,5.6076,5.6068,5.6074,5.6114,5.6126,5.6096,5.6095,5.6101,5.6137,5.6152,5.6156,5.6218,5.6165,5.6169,5.6171,5.6172,5.6329,5.6331,0,0,0,0,0,0,5.6,5.6008,5.6097,5.6101,5.6036,5.6072,5.6078,5.6101,5.6126,5.6128,5.6103,5.61,5.6146,5.6152,5.6157,5.6228,5.6169,5.6172,5.6175,5.6327,5.6329,5.6332,0,0,0,0,0,0,5.5997,5.6008,5.6095,5.6054,5.6064,5.6076,5.6102,5.6103,5.6118,5.6131,5.6132,5.6116,5.6145,5.6152,5.62,5.6229,5.6174,5.6177,5.6325,5.6328,5.6331,5.6369,0,0,0,0,0,0,5.5994,5.6007,5.6031,5.6055,5.6067,5.6139,5.6104,5.6105,5.6124,5.6121,5.6143,5.6145,5.6144,5.6195,5.6203,5.6233,5.618,5.6322,5.6326,5.633,5.6366,5.6373,5.638,0,0,0,0,0,5.5989,5.6039,5.6033,5.6044,5.6098,5.6141,5.6148,5.6148,5.6127,5.615,5.6158,5.6144,5.6225,5.62,5.6209,5.624,5.632,5.6325,5.6329,5.6362,5.6372,5.638,0,0,0,0,0,0,5.6017,5.6042,5.6035,5.6095,5.6116,5.6137,5.6167,5.6158,5.6184,5.618,5.6177,5.6182,5.6231,5.624,5.6213,5.6298,5.6269,5.6276,5.6291,5.63,5.6307,5.6303,5.6183,0,0,0,0,0,5.603,5.6065,5.6085,5.6135,5.6146,5.6155,5.6174,5.6172,5.6193,5.6201,5.6213,5.6233,5.6262,5.6281,5.6309,5.6367,5.637,5.6393,5.64,5.6406,5.6411,5.6441,5.6451,5.6347,5.6347,5.6347,0,0,5.6057,5.6075,5.6098,5.6141,5.6158,5.6192,5.6163,5.62,5.6225,5.6206,5.6253,5.6262,5.6283,5.6336,5.636,5.6345,5.6441,5.6412,5.6416,5.6419,5.6447,5.6457,5.6466,5.635,5.6349,5.6349,0,0,5.6124,5.6143,5.6186,5.6204,5.623,5.6235,5.6245,5.6268,5.6274,5.632,5.6307,5.6335,5.6386,5.6402,5.6416,5.6489,5.6476,5.6498,5.6536,5.6565,5.6573,5.658,5.6605,5.6614,5.6504,5.6504,5.6504,0,5.6154,5.6208,5.6209,5.6248,5.6267,5.6254,5.6296,5.6312,5.6345,5.6357,5.6341,5.6405,5.6418,5.6474,5.6492,5.6504,5.6515,5.6495,5.6572,5.658,5.6586,5.661,5.6619,5.6506,5.6506,5.6506,5.6505,0,5.6243,5.628,5.6312,5.6346,5.6368,5.6409,5.6414,5.6436,5.6432,5.6438,5.6485,5.6501,5.6531,5.6544,5.654,5.6599,5.6589,5.6573,5.6543,5.6599,5.6621,5.663,5.651,5.6509,5.6508,5.6507,0,0,5.6329,5.6363,5.6375,5.639,5.6417,5.6445,5.6484,5.6516,5.6534,5.6557,5.6588,5.6632,5.6617,5.6633,5.6631,5.6656,5.6712,5.6637,5.6637,5.6649,5.6776,5.6788,5.6799,5.6704,5.6705,5.6707,5.6774,0,5.6397,5.6469,5.647,5.6534,5.6568,5.6555,5.6589,5.6608,5.6615,5.6642,5.6649,5.668,5.6658,5.6668,5.6693,5.67,5.6737,5.6695,5.6731,5.6733,5.6726,5.6811,5.6823,5.6886,5.6783,5.6784,5.6785,0,5.6487,5.6515,5.6583,5.6605,5.6619,5.665,5.6678,5.6705,5.6726,5.6729,5.6748,5.6741,5.6779,5.6748,5.6799,5.6771,5.6785,5.6791,5.6793,5.6796,5.6762,5.6815,5.6906,5.6916,5.6799,5.6798,5.6797,0,5.6541,5.6596,5.6643,5.6656,5.6684,5.6705,5.6717,5.6737,5.6755,5.678,5.6791,5.6819,5.6834,5.6855,5.6855,5.6833,5.6906,5.6876,5.6908,5.6908,5.6923,5.6922,5.7018,5.6934,5.6934,5.6934,5.6934,0,5.6617,5.6659,5.6668,5.6697,5.6743,5.6744,5.6789,5.6798,5.6816,5.6845,5.6835,5.6862,5.6861,5.6888,5.6888,5.693,5.6936,5.6938,5.6938,5.6939,5.6939,5.6948,5.6944,5.6936,5.6936,5.6935,5.6935,0,5.6686,5.6694,5.6745,5.6767,5.6773,5.6806,5.6824,5.6851,5.6856,5.6893,5.6902,5.691,5.6942,5.6944,5.698,5.698,5.703,5.7025,5.7024,5.7023,5.7054,5.7051,5.7159,5.7173,5.708,5.7081,5.7082,0,5.6734,5.6766,5.6792,5.6812,5.6826,5.6858,5.6877,5.6879,5.6899,5.6925,5.6948,5.6979,5.7003,5.7053,5.7061,5.7088,5.7083,5.7119,5.7087,5.7087,5.7083,5.7081,5.7083,5.7125,5.7126,5.7127,5.7128,0,5.6818,5.682,5.685,5.6881,5.6905,5.6928,5.6951,5.6967,5.697,5.6993,5.7026,5.7046,5.7083,5.7113,5.7139,5.7149,5.7138,5.7138,5.7146,5.7148,5.7145,5.7146,5.704,5.7135,5.7134,5.7134,5.7133,5.7133,5.6877,5.6904,5.6927,5.696,5.6977,5.6998,5.7025,5.7034,5.7062,5.7094,5.7093,5.7128,5.7147,5.7182,5.7194,5.722,5.7208,5.7221,5.7224,5.7227,5.723,5.7142,5.7225,5.7225,5.7225,5.7224,5.7224,0,5.6959,5.6973,5.7004,5.7036,5.7062,5.7052,5.7075,5.7097,5.7129,5.7149,5.7173,5.721,5.7239,5.725,5.7278,5.7297,5.7293,5.7304,5.7302,5.7304,5.724,5.7229,5.7307,5.7307,5.7307,5.7307,5.7307,5.7307,5.7005,5.7051,5.7056,5.711,5.7123,5.716,5.7175,5.7193,5.7208,5.7251,5.7276,5.7283,5.7298,5.7327,5.7353,5.7355,5.7365,5.7378,5.7378,5.7317,5.7309,5.7301,5.7291,5.7381,5.7381,5.7441,5.7441,5.7442]}]]